星链-1228 (STARLINK-1228 )

导读 | 星芒AI

STARLINK-1228 是 SpaceX Starlink 卫星互联网项目中的一颗低轨卫星,属于第 12 批部署的 Starlink 卫星之一。该卫星于 2020 年 11 月 24 日由猎鹰 9 号火箭从肯尼迪航天中心发射升空,进入约 550 公里的轨道,旨在为全球提供高速互联网服务。STARLINK-1228 采用先进的相控阵天线和激光通信技术,具备高带宽和低延迟特性,支持偏远地区的网络接入。该卫星是 SpaceX 打造全球卫星互联网网络的重要组成部分。

基本信息
目录编号:
45188
目录名称:
STARLINK-1228
国际标识:
2020-012L
轨道中心:
EARTH
卫星名称:
星链-1228
卫星全名:
星链-1228 (STARLINK-1228 )
卫星状态:
已陨落 最后检测时间 2025-09-15
发射日期:
2020-02-17 UTC
国别 :
美国 (US)
星等 :
--
轨道信息
数据来源 国际轨道数据
星历时间: 2025-09-15T01:52:47+0800
轨道信息已过期44天
半长轴: 6558.614km
偏心率: 0.0004413
轨道倾角: 53.024°
近地点辐角 329.934°
升交点赤经 359.877°
平近点角 30.145°
近地点: 177.584km
远地点: 183.374km
周期: 88.100分钟
每日圈数: 16.344992
详细信息
固有亮度:
5
最大亮度:
2.5
卫星平台:
Starlink V1.0
覆盖范围:
全球
运营商:
太空探索技术公司
运营商所在国:
美国
制造商(研发单位):
太空探索技术公司
制造商所在国:
美国
使用方式:
暂无
卫星简介
星链(Starlink)计划是由太空探索技术公司(SpaceX)提出的一个巨型低轨卫星互联网星座项目,计划在2019年至2024年间在太空搭建由约1.2万颗卫星组成的“星链”网络,其中1584颗将部署在地球上空550千米处的近地轨道,并从2020年开始工作。该卫星仍在工作。